Regional Weather Roundup
Issued by NWS

Home | Current Version | Previous Version | Text Only | Print | Product List | Glossary Off
Versions: 1 2 3 4 5 6 7 8 9 10 11 12 13 14 15 16 17 18 19 20 21 22 23 24 25 26 27 28 29 30 31 32 33 34 35 36 37 38 39 40 41 42 43 44 45 46 47 48 49 50

846
ASUS45 KABQ 031701
RWRNM
NEW MEXICO REGIONAL WEATHER ROUNDUP
NATIONAL WEATHER SERVICE ALBUQUERQUE NM
1000 AM MST SAT DEC 03 2016

NOTE: "FAIR" MEANS FEW OR NO CLOUDS BELOW 12,000 FEET AGL WITH NO
       SIGNIFICANT WEATHER OR OBSTRUCTIONS TO VISION.

      THIS PRODUCT IS RELEASED AS TWO VERSIONS.  ONE VERSION NEAR
      THE TOP OF THE HOUR CONTAINING PRELIMINARY DATA FROM ALBUQUERQUE
      AND OTHER STATIONS.  A FINAL VERSION WITH ADDITIONAL DATA IS
      ISSUED ABOUT 10 MINUTES AFTER THE HOUR.

NMZ501-503-504-510>518-031800-
NORTHWEST PLATEAU/NORTHCENTRAL MOUNTAINS

CITY           SKY/WX    TMP DP  RH WIND       PRES   REMARKS
FARMINGTON     CLOUDY    29  25  85 CALM      30.15S
LOS ALAMOS     PTSUNNY   29  23  78 N6        30.11S WCI  23
SANTA FE       FAIR      35  24  64 N17       30.08F WCI  25
TAOS           FAIR      27  14  59 N12       30.12S WCI  16
ANGEL FIRE     FOG       18  17  93 CALM      30.08F VSB 1/2

$$
NMZ402-403-502-505>509-031800-
WESTCENTRAL MOUNTAINS/SOUTHWEST MOUNTAINS

CITY           SKY/WX    TMP DP  RH WIND       PRES   REMARKS
GALLUP         FAIR      31  25  78 E12       30.14S WCI  22
GRANTS         CLOUDY    30  25  82 NW18G26   30.15S WCI  17
SILVER CITY    LGT RAIN  40  38  93 W3        29.99S

$$
NMZ407-409-411-412-031800-
SOUTHERN DESERTS

CITY           SKY/WX    TMP DP  RH WIND       PRES   REMARKS
DEMING         CLOUDY    40  34  79 NE28G38   29.99S WCI  29
LAS CRUCES     CLOUDY    38  32  78 N14       30.02R WCI  30
HOLLOMAN AFB   PTSUNNY   41  33  75 N14       30.05F
T OR C         PTSUNNY   42  27  55 NE18G26   30.06R

$$
NMZ519>523-031800-
CENTRAL VALLEYS/CENTRAL HIGHLANDS

CITY           SKY/WX    TMP DP  RH WIND       PRES   REMARKS
ALBUQUERQUE    PTSUNNY   36  28  73 N9        30.12S WCI  29
DOUBLE EAGLE   PTSUNNY   34  28  80 N9        30.12S WCI  26
MORIARTY ARPT  CLOUDY    32  24  71 N7        30.11S WCI  26
CLINES CORNERS FAIR      32  24  72 VRB3      30.08F
BELEN          CLOUDY    36  32  84 NE9       30.14R WCI  29
SOCORRO        FAIR      38  30  74 N18       30.11S WCI  28

$$
NMZ524>526-539-540-031800-
SOUTHCENTRAL MOUNTAINS

CITY           SKY/WX    TMP DP  RH WIND       PRES   REMARKS
RUIDOSO        LGT SNOW  27  27 100 S6        30.10S WCI  20

$$
NMZ527>531-031800-
NORTHEAST HIGHLANDS/NORTHEAST PLAINS

CITY           SKY/WX    TMP DP  RH WIND       PRES   REMARKS
LAS VEGAS      FAIR      32  22  66 S7        30.06F WCI  26
RATON          FAIR      26  20  77 E5        30.05F WCI  20
CLAYTON        CLOUDY    31  31 100 S9        30.09F WCI  23

$$
NMZ532>537-031800-
EASTCENTRAL PLAINS

CITY           SKY/WX    TMP DP  RH WIND       PRES   REMARKS
TUCUMCARI      LGT SNOW  33  32  96 CALM      30.14S FOG
CANNON AFB     NOT AVBL
CLOVIS AIRPORT CLOUDY    34  32  93 N10       30.11F WCI  26

$$
NMZ028-029-538-031800-
SOUTHEAST PLAINS

CITY           SKY/WX    TMP DP  RH WIND       PRES   REMARKS
ROSWELL        MIX PCPN  36  33  89 N12       30.14R WCI  28
ARTESIA        DRIZZLE   36  36 100 N16       30.14R WCI  26
CARLSBAD       LGT RAIN  36  36 100 N22       30.10S FOG     WCI  25
HOBBS          CLOUDY    39  39 100 NE12      30.09S WCI  32


$$




USA.gov is the U.S. government's official web portal to all federal, state and local government web resources and services.